TANDEM-X

Last updated on Mon Sep 07 2026 00:02:45 GMT+0000 (Coordinated Universal Time)

1 36605U 10030A 26249.47321048 .00000422 00000+0 23287-4 0 9999 2 36605 97.4476 256.0284 0001792 96.4106 263.7333 15.19146925898983
UTC large
Height (km)
Speed (km/s)
/
Latitude / Longitude
Inclination (degrees)
Orbital Period (minutes)
Azimuth
Elevation
Range (km)
Doppler Factor

Next 0 passes for location: London (51.5072 / 0.1276)

No passes found over London.
TANDEM-X